Regional Weather Roundup
Issued by NWS State College, PA

Home | Current Version | Previous Version | Text Only | Print | Product List | Glossary On
Versions: 1 2 3 4 5 6 7 8 9 10 11 12 13 14 15 16 17 18 19 20 21 22 23 24 25 26 27 28 29 30 31 32 33 34 35 36 37 38 39 40 41 42 43 44 45 46 47 48 49 50
415
ASUS41 KCTP 210610
RWRCTP

REGIONAL WEATHER ROUNDUP
NATIONAL WEATHER SERVICE STATE COLLEGE PA
100 AM EST SAT JAN 21 2017

Note: "fair" indicates few or no clouds below 12,000 feet with no
significant weather and/or obstructions to visibility.

* = STATION THAT DOES NOT REPORT PRECIPITATION /E.G. RAIN...SNOW...ETC/
    THUNDER OR FOG.

PAZ002>004-007>009-013>016-020>023-029>032-210700-
WESTERN PENNSYLVANIA

CITY           SKY/WX    TMP DP  RH WIND       PRES   REMARKS
ERIE           CLOUDY    46  45  96 SW3       29.81S
MEADVILLE      FOG       49  47  93 CALM      29.80S VSB 1/2
FRANKLIN*        N/A     46  45  93 SW3       29.82S VSB 3/4
NEW CASTLE     FOG       41  41 100 CALM      29.82R VSB 1/2
BEAVER COUNTY  NOT AVBL
BUTLER*        PTCLDY    46  45  93 CALM      29.84S
PITTSBURGH INT PTCLDY    45  45 100 CALM      29.81F
PITTSBURGH     CLEAR     50  47  89 S7        29.81F
INDIANA*       FOG       45  45 100 CALM      29.85S VSB 1/2
LATROBE        PTCLDY    46  46 100 CALM      29.84S
WASHINGTON CO* CLOUDY    39  39 100 CALM      29.82S VSB 1/4
$$

PAZ004>006-010>012-017>019-024>028-033>037-041-042-045-046-049>053-210700-
CENTRAL PENNSYLVANIA

CITY           SKY/WX    TMP DP  RH WIND       PRES   REMARKS
BRADFORD       FOG       46  46 100 SW3       29.80S VSB 1/4
DUBOIS         FOG       47  44  90 SW5       29.81S VSB 1/4
CLEARFIELD     FOG       39  39 100 CALM      29.84R VSB 3/4
JOHNSTOWN      MOCLDY    50  48  93 SW7       29.82F
ALTOONA        FOG       40  40 100 CALM      29.85S VSB 1/2
STATE COLLEGE  FOG       39  39  99 SW5       29.85S VSB 1/2
WILLIAMSPORT   CLOUDY    39  38  96 CALM      29.87F FOG
SELINSGROVE    FOG       39  39 100 CALM      29.89F VSB 1/4
FT INDIANTOWN  FOG       37  37 100 CALM      29.89F VSB 1/2
CAPITAL CITY   FOG       40  39  97 CALM      29.90S VSB 1/2
HARRISBURG     FOG       39  39 100 CALM      29.90R VSB 1/2
YORK           FOG       42  42 100 CALM      29.89S VSB 1/4
$$

PAZ038>040-043-044-047-048-054-055-060>062-067>071-210700-
EASTERN PENNSYLVANIA

CITY           SKY/WX    TMP DP  RH WIND       PRES   REMARKS
SCRANTON       CLOUDY    39  38  96 CALM      29.86F
MOUNT POCONO   FOG       35  34  96 W5        29.85S VSB 1/2
ALLENTOWN      CLOUDY    40  38  93 CALM      29.91F FOG
QUAKERTOWN*    CLOUDY    37  37 100 CALM      29.91F VSB 1/2
READING        FOG       39  39 100 CALM      29.89F VSB 1/2
LANCASTER      FOG       41  41 100 E3        29.90R VSB 1/4
COATESVILLE    FOG       41  41 100 CALM      29.92R VSB<1/4
POTTSTOWN      FOG       39  39 100 E5        29.92F VSB 1
BLUE BELL      CLOUDY    37  37 100 CALM      29.91F VSB 1/2
DOYLESTOWN     CLOUDY    41  40  96 CALM      29.91S FOG
WILLOW GROVE   NOT AVBL
NORTH PHILA    CLOUDY    43  41  93 SE3       29.94S FOG
PHILADELPHIA   CLOUDY    42  40  92 CALM      29.93F FOG
$$




USA.gov is the U.S. government's official web portal to all federal, state and local government web resources and services.